Погода в Павлодаре

Поиск расширенной информации на нашем сайте:

Полезная информация:

Новости сайта



14.11.2019
Обновлён Долгосрочный прогноз погоды по России и другим странам хСССР на ноябрь-декабрь 2019 года.
Опубликованы прогностические карты: Предварительный прогноз на декабрь 2019 года, Предварительный прогноз на январь 2020 года, Предварительная схема синоптических процессов на декабрь 2019 г..

11.11.2019
Обновлены Долгосрочный прогноз погоды по России и другим странам хСССР на ноябрь-декабрь 2019 года и Предварительный прогноз на зиму 2019/2020 годов

04.11.2019
Опубликован Долгосрочный прогноз погоды по России и другим странам хСССР на ноябрь 2019 года
Сравнение прогнозируемой аномалии приземной температуры воздуха на ноябрь 2019 года по разным моделям
Предварительный прогноз на зиму 2019/2020 года




Погода в Павлодаре - сегодня

Время (UTC), дата Ветер
(°,м/с) 
Видим.   Явления Облачность Т
(°С)
Тd
(°С)
f(%) Тe
(°С)
Pmin
(гПа)
dP
(гПа)
Po
(мм)
O2
(г/м3)
Тmin Tmax R s Состояние
почвы
21 17.11.19 240 (ЮЗ) 20000 м    10/10 600 м 
[Sc]
-0.9 -4.8 75 -2  1019.5  -0.6  753  305           
00 18.11.19 280 (З) 10 км  слаб. снег  10/10 600 м 
[Ns]
-1.8 -3.9 86 -3  1018.4  -1.2  752  306           
03 18.11.19 290 (З) 2000 м  снег  10/10 600 м 
[Ns]
-2.5 -3.8 91 -5  1017.8  -0.6  752  306      равномерный
сухой снег
100% 
06 18.11.19 320 (СЗ) 10 км  слаб. снег  10/10 600 м 
[Ns]
-1.8 -3.6 87 -4  1017.8  752  305  -2.5       
09 18.11.19 320 (СЗ) 10 км  слаб. снег  10/10 600 м 
[Ns]
-1.3 -3.9 82 -3  1018.2  0.4  752  305           
12 18.11.19 250 (З) 20000 м  {снег}  8/3 600 м средняя 
[Sc|Ac As]
-2.2 -4.4 85 -3  1018.6  0.4  753  306           
15 18.11.19 310 (СЗ) 10 км  слаб. снег  10/10 600 м 
[Ns]
-2.4 -4 89 -4  1018.5  -0.1  752  306    -1.3     
18 18.11.19 320 (СЗ) 10 км  слаб. снег  10/8 600 м средняя 
[Sc|Ac trans]
-4.3 -7 81 -7  1019  0.4  753  309    -1.3     
21 18.11.19 270 (З) 10 км  слаб. снег  10/10 600 м 
[Ns]
-4.6 -7.7 79 -7  1018.3  -0.7  752  309           
00 19.11.19 330 (СЗ) 20000 м  {снег}  10/6 600 м средняя 
[Sc|Ac trans]
-12.5 -16.5 72 -18  1020.6  1.7  754  320           
03 19.11.19 330 (СЗ) 20000 м    8/6 600 м средняя 
[Sc|Ac trans]
-19.7 -23.5 72 -24  1023.6  2.6  755  330      равномерный
сухой снег
100% 
06 19.11.19 330 (СЗ) 20000 м    9/8 600 м средняя 
[Sc|Ac trans]
-20.2 -24.6 68 -25  1024.9  1.2  756  331  -19.7       
09 19.11.19 340 (С) 20000 м    8/3 1000 м средняя, верхняя 
[Sc|Ac trans|Ci fib]
-20.3 -25.7 62 -26  1025.6  0.7  757  331           
12 19.11.19 330 (СЗ) 20000 м    8/4 600 м средняя 
[Sc|Ac trans]
-22.1 -26.7 66 -25  1026.4  0.6  757  334           
15 19.11.19 330 (СЗ) 20000 м    3/0 средняя 
[Ac trans]
-24.6 -28.7 69 -28  1027.8  1.3  758  338    -19.7       
18 19.11.19 330 (СЗ) 10 км  слаб. снег  10/10 600 м 
[Sc]
-26.1 -30.3 68 -27  1028.8  0.8  759  340    -19.7       
21 19.11.19 310 (СЗ) 20000 м  {снег}  3/0 верхняя 
[Ci fib]
-28.1 -32.5 66 -29  1029.7  0.8  760  343           
00 20.11.19 280 (З) 20000 м    6/3 600 м средняя 
[Sc|Ac trans]
-26.9 -31.2 67 -28  1031.4  1.8  761  342           
03 20.11.19 300 (СЗ) 20000 м  {снег}  4/1 1000 м средняя 
[Sc|Ac trans]
-27 -31.3 67 -28  1033.4  762  343      0.0  равномерный
сухой снег
100% 
06 20.11.19 320 (СЗ) 20000 м  {снег}  3/0 средняя, верхняя 
[Ac trans|Ci fib]
-24 -28.7 65 -27  1034.7  1.4  763  339  -28.3    0.0     
09 20.11.19 320 (СЗ) 20000 м    3/0 средняя 
[Ac trans]
-23 -29 58 -28  1035.3  0.6  764  338           
12 20.11.19 310 (СЗ) 20000 м    1/0 средняя 
[Ac trans]
-24.4 -29.6 62 -28  1037  1.7  765  340           
15 20.11.19 290 (З) 20000 м    3/0 средняя 
[Ac trans]
-26.1 -30.4 67 -27  1038.3  1.1  766  343    -22.6       
18 20.11.19 290 (З) 10 км  слаб. снег  10/6 600 м средняя 
[Sc|Ac As]
-25.1 -29.1 69 -26  1038.8  0.5  766  342    -22.6       
21 20.11.19 250 (З) 10 км  слаб. снег  10/6 600 м средняя 
[Sc|As op]
-25.6 -29.6 69 -26  1039.1  0.3  767  343           
Время (UTC), дата Ветер
(°,м/с) 
Видим.   Явления Облачность Т
(°С)
Тd
(°С)
f(%) Тe
(°С)
Pmin
(гПа)
dP
(гПа)
Po
(мм)
O2
(г/м3)
Тmin Tmax R s Состояние
почвы

Для получения пояснительной информации подведите курсор к названию столбца.

ПОГОДА в Павлодаре - архив

Всё, что Вы хотите узнать о погоде в Павлодаре - удобно и подробно!

Выберите нужную дату (начиная с 1 января 2019* года) и нажмите кнопку "Найти".
Будут отображены архивные сводки погоды по пункту Павлодар, начиная с указанной даты.


Отображать данные в формате CSV (для использования в таблицах Excel)


Внимание! Наш архив погоды предназначен исключительно для личного некоммерческого использования в познавательных целях. Если Вам необходимы официальные справки о состоянии погоды (для производственных, юридических, коммерческих и т.п. целей), обращайтесь в органы Росгидромета.

*Примечание: данная дата относится к архиву по метеостанциям СССР (Россия, СНГ, Балтия).
Архив по метеостанциям Зарубежной Европы и Азии (кроме Китая) хранится 10 дней, по другим регионам земного шара (Китай, Африка, Америка, Австралия, Океания) - 1 день.

Павлодар - район местоположения метеостанции


Название, широта, долгота, высота метеостанции:
Павлодар 52.1°ш. 77.1°д. 125 м над ур. моря [Казахстан]

Дополнительная информация

В oтличие oт бoльшинства пoгoдных сайтoв мы публикуем пoдрoбную метеoинфoрмацию в детальнoм прoфессиoнальнoм фoрмате.

Характеристики температуры и влажнoсти вoздуха измеряются на высoте 2 м в тени вдали oт зданий и деревьев.
Скoрoсть ветра измеряется на высoте 10 м (на урoвне рoста челoвека скoрoсть ветра ниже в 1.5-2 раза). Если метеoстанция нахoдится в гoрoде или в лесу, тo скoрoсть ветра занижена на 2-4 м/с пo сравнению с oткрытым местoм. Скoрoсть ветра над акватoриями крупных рек и oзёр, а также на вершинах хoлмoв на 2-5 м/с выше, чем в oбычных услoвиях.
Атмoсфернoе давление в разных тoчках местнoсти мoжет значительнo oтличаться oт давления на метеoстанции, в зависимoсти oт услoвий рельефа (при пoдъёме на 10 м давление пoнижается примернo на 1 мм рт.ст.).